Galesburg, IL

6:02 AM CDT on August 24, 2019 (GMT -0500)
Galesburg Municipal

Weather History for KGBG - May, 2019

Change the Weather History Date:

Monday, May 20, 2019

  Actual Average Record
Temperature  
Mean Temperature 48 °F -  
Max Temperature 54 °F 75 °F 91 °F (1987)
Min Temperature 43 °F 53 °F 33 °F (1954)
Degree Days  
Heating Degree Days 16    
Moisture  
Dew Point 42 °F    
Average Humidity 76    
Maximum Humidity 90    
Minimum Humidity 63    
Precipitation  
Precipitation 0.14 in - - ()
Sea Level Pressure  
Sea Level Pressure 30.09 in    
Wind  
Wind Speed 10 mph (NNW)    
Max Wind Speed 17 mph    
Max Gust Speed 25 mph    
Visibility 10 miles    
Events Rain    
Averages and records for this station are not official NWS values.
T = Trace of Precipitation, MM = Missing Value Source: NWS Daily Summary

Daily Weather History Graph

Daily Weather History Graph

Search for Another Location

Airport or City:

Astronomy

May. 20, 2019 Rise Set
Actual Time 5:39 AM CDT 8:17 PM CDT
Civil Twilight 5:08 AM CDT 8:49 PM CDT
Nautical Twilight 4:28 AM CDT 9:28 PM CDT
Astronomical Twilight 3:43 AM CDT 10:13 PM CDT
Moon 10:18 PM CDT (5/20) 7:08 AM CDT (5/20)
Length of Visible Light 15h 40m
Length of Day
14h 37m
Waning Gibbous, 96% of the Moon is Illuminated
May 20
Waning Gibbous
May 26
Last Quarter
Jun 3
New
Jun 10
First Quarter
Jun 17
Full

Hourly Weather History & Observations

Time (CDT) Temp. Windchill Dew Point Humidity Pressure Visibility Wind Dir Wind Speed Gust Speed Precip Events Conditions
12:15 AM 53.2 °F - 49.1 °F 86% 29.94 in 10.0 mi West 10.4 mph - N/A   Overcast
12:35 AM 52.2 °F - 47.5 °F 84% 29.95 in 10.0 mi West 15.0 mph 25.3 mph N/A   Overcast
12:55 AM 52.3 °F - 47.7 °F 84% 29.95 in 10.0 mi West 16.1 mph 23.0 mph N/A   Overcast
1:15 AM 51.4 °F - 46.9 °F 85% 29.95 in 10.0 mi WNW 12.7 mph - N/A   Overcast
1:35 AM 51.3 °F - 47.3 °F 86% 29.95 in 10.0 mi West 12.7 mph 18.4 mph N/A   Overcast
1:55 AM 50.9 °F - 46.8 °F 86% 29.95 in 10.0 mi WNW 10.4 mph 17.3 mph N/A   Overcast
2:15 AM 50.2 °F - 45.9 °F 85% 29.96 in 10.0 mi West 9.2 mph - N/A   Mostly Cloudy
2:35 AM 49.8 °F - 45.5 °F 85% 29.97 in 10.0 mi WNW 11.5 mph 18.4 mph N/A   Scattered Clouds
2:55 AM 49.5 °F - 45.5 °F 86% 29.98 in 10.0 mi West 11.5 mph - N/A   Mostly Cloudy
3:15 AM 50.0 °F - 45.9 °F 86% 29.98 in 10.0 mi WNW 9.2 mph - N/A   Overcast
3:35 AM 49.8 °F - 45.3 °F 84% 29.98 in 10.0 mi WNW 12.7 mph 18.4 mph N/A   Overcast
3:55 AM 49.1 °F - 44.8 °F 85% 29.98 in 10.0 mi WNW 10.4 mph - N/A   Overcast
4:15 AM 48.4 °F - 44.1 °F 85% 29.98 in 10.0 mi WNW 11.5 mph 17.3 mph N/A   Overcast
4:35 AM 48.2 °F - 43.9 °F 85% 29.99 in 10.0 mi WNW 11.5 mph - N/A   Overcast
4:55 AM 47.3 °F - 41.7 °F 81% 30.00 in 10.0 mi WNW 17.3 mph 24.2 mph N/A   Overcast
5:15 AM 46.4 °F 41.1 °F 40.6 °F 80% 30.00 in 10.0 mi WNW 11.5 mph 20.7 mph N/A   Mostly Cloudy
5:35 AM 45.3 °F 39.0 °F 40.1 °F 82% 30.02 in 10.0 mi WNW 13.8 mph 20.7 mph N/A   Mostly Cloudy
5:55 AM 44.6 °F 38.1 °F 39.2 °F 81% 30.03 in 10.0 mi WNW 13.8 mph 19.6 mph N/A   Scattered Clouds
6:15 AM 44.6 °F 38.1 °F 39.2 °F 81% 30.03 in 10.0 mi WNW 13.8 mph 18.4 mph N/A   Mostly Cloudy
6:35 AM 44.4 °F 38.6 °F 39.4 °F 82% 30.04 in 10.0 mi WNW 11.5 mph 17.3 mph N/A   Overcast
6:55 AM 44.2 °F 38.4 °F 39.4 °F 83% 30.06 in 10.0 mi WNW 11.5 mph 17.3 mph N/A   Overcast
7:15 AM 43.9 °F 38.3 °F 38.3 °F 81% 30.07 in 10.0 mi WNW 10.4 mph - N/A   Overcast
7:35 AM 43.7 °F 36.9 °F 37.6 °F 79% 30.08 in 10.0 mi WNW 13.8 mph - N/A   Overcast
7:55 AM 43.2 °F 37.0 °F 37.4 °F 80% 30.08 in 10.0 mi WNW 11.5 mph 19.6 mph N/A   Overcast
8:15 AM 43.9 °F 38.3 °F 38.3 °F 81% 30.08 in 10.0 mi WNW 10.4 mph - N/A   Overcast
8:35 AM 43.9 °F 37.5 °F 38.1 °F 80% 30.09 in 7.0 mi WNW 12.7 mph 17.3 mph N/A   Overcast
8:55 AM 44.4 °F 39.0 °F 38.1 °F 79% 30.12 in 10.0 mi WNW 10.4 mph 16.1 mph N/A   Overcast
9:15 AM 44.6 °F 40.7 °F 37.8 °F 77% 30.12 in 10.0 mi West 6.9 mph - N/A   Overcast
9:35 AM 45.5 °F 41.3 °F 37.9 °F 75% 30.13 in 10.0 mi WNW 8.1 mph - N/A   Overcast
9:55 AM 46.0 °F 41.4 °F 38.7 °F 75% 30.14 in 10.0 mi WNW 9.2 mph - N/A   Overcast
10:15 AM 46.4 °F 43.5 °F 38.1 °F 73% 30.15 in 10.0 mi WNW 5.8 mph - N/A   Overcast
10:35 AM 46.9 °F - 39.7 °F 76% 30.15 in 10.0 mi WNW 10.4 mph - N/A   Overcast
10:55 AM 47.1 °F - 39.6 °F 75% 30.15 in 10.0 mi WNW 6.9 mph - N/A   Overcast
11:15 AM 47.8 °F - 39.9 °F 74% 30.16 in 10.0 mi WNW 8.1 mph - N/A   Overcast
11:35 AM 48.6 °F - 39.9 °F 72% 30.15 in 10.0 mi North 6.9 mph - N/A   Overcast
11:55 AM 48.7 °F - 39.9 °F 72% 30.16 in 10.0 mi ENE 5.8 mph - N/A   Overcast
12:15 PM 49.5 °F - 40.1 °F 70% 30.16 in 10.0 mi West 6.9 mph - N/A   Overcast
12:35 PM 49.8 °F - 40.5 °F 70% 30.15 in 10.0 mi ENE 9.2 mph - N/A   Overcast
12:55 PM 50.7 °F - 40.5 °F 68% 30.15 in 10.0 mi ENE 5.8 mph - N/A   Overcast
1:15 PM 50.9 °F - 40.8 °F 68% 30.14 in 10.0 mi West 9.2 mph - N/A   Overcast
1:35 PM 51.8 °F - 42.3 °F 70% 30.14 in 10.0 mi WNW 8.1 mph - N/A   Overcast
1:55 PM 52.3 °F - 41.2 °F 66% 30.15 in 10.0 mi ENE 4.6 mph - N/A   Overcast
2:15 PM 52.3 °F - 41.5 °F 67% 30.14 in 10.0 mi ENE 8.1 mph - N/A   Overcast
2:35 PM 52.2 °F - 41.4 °F 67% 30.16 in 10.0 mi ENE 6.9 mph - N/A   Overcast
2:55 PM 53.4 °F - 42.3 °F 66% 30.14 in 10.0 mi ENE 9.2 mph - N/A   Overcast
3:15 PM 53.8 °F - 41.5 °F 63% 30.17 in 10.0 mi ENE 3.5 mph - N/A   Overcast
3:35 PM 52.9 °F - 41.4 °F 65% 30.16 in 10.0 mi NE 3.5 mph - N/A   Overcast
3:55 PM 53.6 °F - 42.6 °F 66% 30.14 in 10.0 mi ENE 5.8 mph - N/A   Overcast
4:15 PM 53.6 °F - 43.0 °F 67% 30.15 in 10.0 mi West 6.9 mph - N/A   Overcast
4:35 PM 53.6 °F - 42.6 °F 66% 30.14 in 10.0 mi NE 8.1 mph - N/A   Overcast
4:55 PM 54.0 °F - 43.0 °F 66% 30.15 in 10.0 mi NE 9.2 mph - N/A   Mostly Cloudy
5:15 PM 53.8 °F - 43.3 °F 68% 30.13 in 10.0 mi ENE 10.4 mph - N/A   Scattered Clouds
5:35 PM 54.0 °F - 43.5 °F 68% 30.13 in 10.0 mi NE 10.4 mph - N/A   Scattered Clouds
5:55 PM 53.8 °F - 43.2 °F 67% 30.12 in 10.0 mi NE 13.8 mph - N/A   Scattered Clouds
6:15 PM 53.8 °F - 43.3 °F 68% 30.11 in 10.0 mi NE 8.1 mph - N/A   Scattered Clouds
6:35 PM 53.6 °F - 43.0 °F 67% 30.11 in 10.0 mi ENE 9.2 mph - N/A   Mostly Cloudy
6:55 PM 53.2 °F - 42.6 °F 67% 30.10 in 10.0 mi ENE 11.5 mph - N/A   Overcast
7:15 PM 53.1 °F - 43.0 °F 69% 30.10 in 10.0 mi ENE 8.1 mph 16.1 mph N/A   Overcast
7:35 PM 52.7 °F - 42.1 °F 67% 30.12 in 10.0 mi ENE 6.9 mph - N/A   Overcast
7:55 PM 52.7 °F - 43.0 °F 70% 30.14 in 10.0 mi East 3.5 mph - N/A   Overcast
8:15 PM 52.5 °F - 43.5 °F 71% 30.13 in 10.0 mi NE 8.1 mph - N/A   Overcast
8:35 PM 52.2 °F - 43.3 °F 72% 30.13 in 10.0 mi NE 9.2 mph - N/A Rain Light Rain
8:55 PM 51.8 °F - 43.9 °F 74% 30.14 in 10.0 mi Calm Calm - N/A Rain Rain
9:15 PM 51.1 °F - 44.6 °F 78% 30.13 in 10.0 mi East 4.6 mph - N/A Rain Rain
9:35 PM 50.9 °F - 45.5 °F 82% 30.12 in 10.0 mi NE 8.1 mph - N/A Rain Light Rain
9:55 PM 51.1 °F - 45.0 °F 80% 30.13 in 10.0 mi ENE 4.6 mph - N/A   Overcast
10:15 PM 51.1 °F - 44.8 °F 79% 30.15 in 10.0 mi Calm Calm - N/A Rain Rain
10:35 PM 50.2 °F - 45.7 °F 85% 30.14 in 10.0 mi ENE 4.6 mph - 0.01 in Rain Rain
10:55 PM 50.0 °F - 46.4 °F 87% 30.14 in 10.0 mi ENE 4.6 mph - 0.01 in Rain Rain
11:15 PM 49.8 °F - 46.4 °F 88% 30.12 in 10.0 mi ENE 5.8 mph - 0.01 in Rain Rain
11:35 PM 49.3 °F - 45.9 °F 88% 30.12 in 10.0 mi NE 9.2 mph - 0.05 in Rain Rain
11:55 PM 48.7 °F - 45.9 °F 90% 30.12 in 5.0 mi East 5.8 mph - 0.13 in Rain Heavy Rain